TimeCST,TemperatureF,Dew PointF,Humidity,Sea Level PressureIn,VisibilityMPH,Wind Direction,Wind SpeedMPH,Gust SpeedMPH,PrecipitationIn,Events,Conditions,WindDirDegrees,DateUTC
12:53 AM,25.0,21.0,85,29.74,2.5,North,6.9,-,0.02,Snow,Light Snow,350,2013-01-29 06:53:00
1:02 AM,24.8,21.2,86,29.69,3.0,North,6.9,-,0.00,Snow,Light Snow,350,2013-01-29 07:02:00
1:19 AM,24.8,21.2,86,29.69,6.0,NNW,8.1,-,0.00,,Overcast,340,2013-01-29 07:19:00
1:53 AM,25.0,19.9,81,29.71,6.0,NNW,9.2,-,0.00,,Haze,340,2013-01-29 07:53:00
2:53 AM,24.1,19.9,84,29.73,6.0,NNW,9.2,-,N/A,,Overcast,330,2013-01-29 08:53:00
3:53 AM,23.0,19.0,85,29.72,6.0,NNW,10.4,-,N/A,,Overcast,340,2013-01-29 09:53:00
4:53 AM,21.9,18.0,85,29.73,7.0,NNW,11.5,-,N/A,,Mostly Cloudy,340,2013-01-29 10:53:00
5:44 AM,21.2,17.6,86,29.67,5.0,NNW,13.8,-,N/A,,Overcast,340,2013-01-29 11:44:00
5:49 AM,21.2,17.6,86,29.67,6.0,NNW,12.7,-,N/A,,Overcast,340,2013-01-29 11:49:00
5:53 AM,21.2,17.6,86,29.67,6.0,NNW,13.8,-,N/A,,Overcast,340,2013-01-29 11:53:00
6:21 AM,21.2,17.6,86,29.66,4.0,North,13.8,-,N/A,,Overcast,350,2013-01-29 12:21:00
6:40 AM,21.2,19.4,93,29.69,2.0,NNW,11.5,-,N/A,,Overcast,340,2013-01-29 12:40:00
6:53 AM,21.9,19.0,89,29.75,2.0,NNW,13.8,-,N/A,,Overcast,330,2013-01-29 12:53:00
7:18 AM,21.2,19.4,93,29.70,3.0,NNW,15.0,-,N/A,,Overcast,340,2013-01-29 13:18:00
7:53 AM,21.9,19.0,89,29.77,4.0,NNW,16.1,-,N/A,,Overcast,340,2013-01-29 13:53:00
8:33 AM,23.0,19.4,86,29.73,5.0,North,11.5,-,N/A,,Overcast,350,2013-01-29 14:33:00
8:53 AM,21.9,19.0,89,29.79,5.0,NNW,15.0,-,N/A,,Overcast,340,2013-01-29 14:53:00
9:41 AM,23.0,17.6,80,29.75,5.0,NNW,10.4,-,N/A,,Haze,330,2013-01-29 15:41:00
9:53 AM,23.0,18.0,81,29.80,5.0,NNW,12.7,-,N/A,,Haze,330,2013-01-29 15:53:00
10:53 AM,23.0,18.0,81,29.80,5.0,NNW,13.8,-,N/A,,Haze,330,2013-01-29 16:53:00
11:02 AM,23.0,17.6,80,29.76,5.0,NNW,12.7,-,N/A,,Haze,330,2013-01-29 17:02:00
11:27 AM,23.0,17.6,80,29.76,5.0,NNW,11.5,-,N/A,,Haze,340,2013-01-29 17:27:00
11:53 AM,24.1,19.0,81,29.81,5.0,NNW,11.5,-,N/A,,Haze,330,2013-01-29 17:53:00
12:50 PM,24.8,19.4,80,29.77,5.0,NNW,13.8,-,N/A,,Haze,340,2013-01-29 18:50:00
12:53 PM,25.0,19.9,81,29.82,5.0,NNW,15.0,-,N/A,,Haze,340,2013-01-29 18:53:00
1:17 PM,24.8,19.4,80,29.77,5.0,NNW,13.8,-,N/A,,Haze,340,2013-01-29 19:17:00
1:53 PM,26.1,19.9,78,29.81,5.0,NNW,16.1,-,N/A,,Haze,340,2013-01-29 19:53:00
2:22 PM,24.8,19.4,80,29.78,4.0,North,17.3,-,N/A,,Haze,350,2013-01-29 20:22:00
2:43 PM,24.8,19.4,80,29.77,4.0,North,15.0,-,N/A,,Haze,350,2013-01-29 20:43:00
2:53 PM,25.0,19.9,81,29.82,4.0,North,16.1,-,N/A,,Haze,350,2013-01-29 20:53:00
3:53 PM,25.0,19.0,78,29.87,5.0,North,11.5,-,N/A,,Haze,360,2013-01-29 21:53:00
4:36 PM,24.8,19.4,80,29.84,5.0,North,13.8,-,N/A,,Haze,350,2013-01-29 22:36:00
4:53 PM,24.1,18.0,77,29.89,4.0,North,10.4,-,N/A,,Haze,350,2013-01-29 22:53:00
5:33 PM,23.0,17.6,80,29.85,6.0,North,13.8,-,N/A,,Haze,350,2013-01-29 23:33:00
5:53 PM,23.0,18.0,81,29.90,5.0,North,15.0,-,0.00,Snow,Light Snow,350,2013-01-29 23:53:00
6:53 PM,18.0,12.9,81,29.92,10.0,North,15.0,-,0.00,,Clear,360,2013-01-30 00:53:00
7:53 PM,18.0,12.0,78,29.99,10.0,North,12.7,-,N/A,,Overcast,350,2013-01-30 01:53:00
8:53 PM,17.1,9.0,71,29.98,10.0,North,19.6,-,N/A,,Overcast,10,2013-01-30 02:53:00
9:02 PM,15.8,8.6,73,29.92,10.0,North,16.1,-,N/A,,Overcast,10,2013-01-30 03:02:00
9:41 PM,15.8,8.6,73,29.92,10.0,North,18.4,-,N/A,,Overcast,350,2013-01-30 03:41:00
9:53 PM,16.0,9.0,74,29.98,10.0,NNW,16.1,-,N/A,,Overcast,340,2013-01-30 03:53:00
10:02 PM,15.8,10.4,79,29.92,9.0,NNW,17.3,-,N/A,,Overcast,340,2013-01-30 04:02:00
10:53 PM,16.0,9.0,74,29.98,10.0,North,18.4,-,N/A,,Overcast,350,2013-01-30 04:53:00
11:53 PM,15.1,9.0,77,29.99,10.0,North,18.4,-,N/A,,Overcast,350,2013-01-30 05:53:00